Theta_e
289 293 295 297 303 308 309 309 306 301 300 301 299 293 294 294 294 297 296 295 294 293 293 293 291 291 292 291 289 288 287 287 287 282 285 285 285 286 285 284 284 285 286
286 288 289 291 293 292 294 295 301 301 301 299 297 296 295 295 295 297 294 294 294 292 291 291 291 291 289 289 290 289 289 287 286 283 284 284 285 284 281 284 284 285 281
285 285 286 287 289 288 287 289 292 298 297 295 297 297 297 294 294 295 295 292 293 292 291 290 289 289 289 289 288 289 289 286 283 283 282 284 284 284 283 283 284 283 283
282 283 284 284 286 286 287 287 288 289 292 294 295 294 294 293 292 291 290 290 290 291 290 291 291 290 290 289 288 289 288 287 285 284 281 283 284 283 283 281 281 279 281
278 279 280 280 284 285 286 286 287 287 287 288 288 289 289 290 290 289 290 290 290 289 289 290 290 290 290 291 289 288 288 287 286 284 282 280 281 281 281 280 279 279 279
276 276 278 278 279 282 283 285 286 286 286 287 286 288 287 286 292 293 291 289 289 289 288 288 289 287 290 291 292 292 290 288 287 286 283 283 282 282 281 279 277 277 278
274 275 276 277 278 279 281 282 282 284 285 286 286 286 286 286 293 293 291 288 288 288 288 288 287 287 288 289 291 291 291 292 292 289 286 285 283 283 283 280 277 278 277
273 273 275 276 276 278 279 279 280 282 282 283 285 285 285 286 292 293 290 288 288 288 288 288 288 287 287 288 288 288 288 288 289 287 287 285 285 284 285 283 281 279 278
271 271 271 272 273 275 276 276 278 280 281 282 283 283 284 285 290 292 289 286 286 286 287 287 288 287 288 289 287 286 286 286 289 289 289 289 289 288 285 284 280 280 277
270 271 271 271 272 271 271 274 276 278 279 280 281 281 282 283 287 289 288 286 285 284 285 286 286 287 288 290 287 286 285 285 285 286 287 288 288 287 287 286 283 280 277
268 270 270 271 271 270 271 272 272 272 274 276 278 279 280 281 283 287 289 286 285 284 284 284 285 289 289 290 289 287 286 285 286 285 284 284 284 284 283 283 283 282 278
267 268 268 268 271 271 270 270 271 271 271 271 271 274 277 280 283 288 288 289 288 285 283 283 284 288 289 290 289 288 289 286 285 284 283 282 282 282 281 281 281 281 280
263 264 266 266 269 269 268 268 269 268 270 270 271 270 271 277 279 285 288 288 288 284 283 284 286 288 289 289 290 289 286 285 284 283 282 281 282 282 282 280 280 279 279
258 262 265 265 266 268 270 271 270 269 267 270 270 270 268 271 274 279 283 283 285 283 284 284 285 286 287 287 286 287 285 284 283 283 281 280 280 279 279 277 277 278 278
262 263 263 264 262 264 267 266 270 272 275 275 275 273 267 269 272 281 282 282 278 281 282 283 283 283 282 283 282 281 281 282 281 280 279 279 278 278 277 278 278 276 274
261 261 260 261 261 263 264 265 273 276 278 280 281 279 278 279 281 282 282 283 284 284 275 280 280 281 281 281 279 278 280 279 279 280 279 278 277 277 277 277 277 276 273
254 258 257 258 259 258 259 260 260 266 274 276 278 279 279 280 281 282 282 283 285 283 272 274 275 275 278 278 279 279 278 279 280 279 279 278 278 278 277 275 275 272 269
248 252 252 253 252 253 255 256 255 256 257 261 268 274 278 279 281 283 283 282 278 279 271 274 274 276 277 277 277 277 277 278 278 278 278 278 278 277 276 275 274 269 265
251 252 250 250 251 252 253 253 254 254 254 254 256 267 266 275 279 280 281 273 274 276 275 273 273 274 274 276 276 276 276 276 276 277 276 276 276 275 273 272 269 267 264
247 251 252 249 250 252 253 253 253 254 254 253 254 256 259 263 263 266 268 273 272 273 273 269 269 273 274 274 275 275 274 275 275 275 274 274 273 273 271 269 267 265 262
248 247 251 247 248 248 249 251 252 251 252 252 253 254 273 260 259 261 266 268 271 271 272 270 270 273 274 274 273 274 274 273 273 273 272 271 271 269 269 268 266 265 262
247 247 246 247 248 249 248 250 250 250 251 251 253 254 269 255 255 258 264 266 266 269 271 272 273 273 274 274 274 273 273 272 271 271 270 269 268 267 266 265 263 262 261
247 247 247 246 246 248 248 247 249 249 250 250 250 251 252 252 253 254 256 262 264 267 269 272 274 274 274 275 275 274 272 271 271 271 269 268 267 266 266 265 263 261 258
247 247 248 247 247 248 248 249 249 250 249 249 248 249 251 251 254 254 253 254 262 264 268 272 273 274 273 273 273 273 272 271 271 271 270 269 267 266 265 263 261 259 258
247 247 247 249 247 249 249 250 253 254 253 255 252 249 250 250 251 254 253 252 254 260 266 270 272 273 272 271 271 271 273 272 271 271 270 269 266 264 262 260 257 255 252
248 249 250 248 249 248 249 251 252 254 256 258 259 257 254 250 250 251 252 254 256 254 256 264 269 270 270 270 270 269 270 270 268 268 267 266 264 261 260 258 256 255 253
Wind_Speed
9 9 8 6 7 11 10 10 9 8 9 9 10 10 12 12 12 13 11 10 6 5 3 9 9 7 6 5 3 3 3 4 4 0 1 1 2 3 2 2 2 3 2
10 11 10 8 10 9 7 6 10 10 11 12 11 12 12 10 11 13 12 10 12 10 7 5 7 6 7 6 6 6 5 4 5 5 2 2 1 2 2 2 1 2 2
11 11 12 11 11 10 8 6 4 7 7 7 9 11 13 14 11 9 9 9 10 10 11 9 5 7 7 6 6 7 5 3 3 4 4 2 1 2 2 1 2 2 3
11 13 15 12 11 11 9 8 6 3 6 6 6 7 8 9 11 11 11 10 9 9 9 10 9 10 9 9 7 8 6 6 3 4 3 3 2 2 2 3 3 2 2
14 15 13 11 12 11 11 10 8 7 5 4 4 3 6 6 7 10 10 11 11 9 8 8 9 11 12 12 8 7 9 7 5 4 3 3 3 3 5 3 2 2 2
14 14 12 12 12 12 11 10 9 9 7 6 3 5 5 3 8 11 9 9 8 10 10 9 9 11 13 16 16 17 15 12 10 6 3 4 5 4 4 4 4 3 2
14 13 13 12 13 12 11 11 11 9 7 8 6 5 3 3 11 13 12 6 8 6 7 7 6 5 7 8 13 15 16 19 13 12 9 7 6 8 7 4 3 3 3
14 14 13 12 13 11 11 11 9 7 8 6 6 5 4 3 3 10 12 6 5 6 7 9 9 8 9 9 9 9 8 8 7 6 6 6 5 9 9 5 4 5 3
13 12 9 10 10 9 11 10 8 7 7 7 4 6 5 4 4 4 8 4 4 5 5 6 8 8 12 15 9 8 7 5 7 11 12 15 16 17 12 8 5 5 2
11 10 9 8 10 10 8 8 6 4 6 5 6 6 6 4 7 3 6 3 3 3 3 4 8 8 14 18 10 10 10 8 10 9 9 13 15 14 19 8 9 8 4
7 7 9 9 10 8 6 5 5 5 6 7 6 6 6 6 5 5 2 4 4 4 4 3 3 12 15 19 17 10 10 11 14 10 9 7 6 8 6 5 6 7 3
8 9 10 9 8 7 7 7 6 6 7 7 6 6 5 6 10 4 6 5 9 5 4 3 4 13 15 17 15 12 14 16 9 8 7 6 7 7 6 6 6 5 2
9 8 7 6 6 6 6 6 5 5 5 5 5 4 5 6 6 15 10 6 7 2 3 6 9 11 14 12 14 15 14 8 8 8 8 6 5 6 8 6 5 6 5
5 6 5 7 7 6 4 3 3 4 4 3 4 4 4 4 4 5 4 3 2 3 2 2 4 4 5 6 9 11 7 6 7 7 7 6 6 6 6 3 4 6 4
5 6 6 5 5 6 5 2 2 2 1 3 2 1 1 3 3 8 6 2 1 1 2 2 2 3 5 6 6 6 6 6 6 5 7 7 7 7 4 4 5 4 3
4 5 5 4 4 4 4 5 8 10 10 9 9 5 1 5 8 8 7 7 4 6 3 1 2 4 5 6 7 6 5 7 6 6 7 7 7 7 7 5 5 4 4
3 4 3 3 4 4 4 4 5 8 10 10 11 10 9 9 9 7 5 6 6 7 2 2 2 2 3 5 6 6 4 5 7 6 7 7 7 7 8 6 5 4 3
3 4 2 3 2 3 3 2 1 2 3 5 9 11 10 12 14 5 4 2 2 3 2 2 3 3 3 5 5 5 6 6 5 6 7 7 7 8 7 7 6 4 3
2 2 2 2 2 2 2 2 1 2 2 3 4 7 8 14 10 9 9 2 3 2 2 2 2 3 3 4 5 5 6 6 6 6 6 6 6 7 6 6 5 6 6
3 4 2 2 3 4 2 2 2 1 3 2 3 3 5 5 4 4 3 3 2 3 3 3 2 3 4 4 4 5 6 6 6 6 6 6 6 6 7 7 5 5 2
2 2 2 2 1 2 2 3 3 2 2 3 3 3 7 2 2 3 3 3 2 2 3 3 2 3 4 5 5 6 6 6 6 7 6 6 6 6 6 6 5 5 6
2 2 1 2 2 2 2 3 2 2 3 3 3 4 7 2 1 2 3 3 2 1 1 3 3 3 4 5 6 6 6 6 6 7 7 7 7 7 6 6 5 4 3
2 2 2 2 2 3 3 2 2 2 3 3 3 3 3 2 2 2 2 3 3 3 1 3 4 4 4 5 5 6 7 6 6 8 9 7 7 6 6 6 6 5 3
3 3 3 3 2 2 3 3 3 4 3 3 3 3 3 2 3 3 2 2 2 3 3 2 3 6 7 6 5 5 6 6 6 7 10 8 7 7 6 6 5 5 6
3 3 3 4 3 3 3 3 4 3 3 4 3 2 2 2 3 3 2 1 1 2 3 3 4 7 9 11 9 9 10 11 8 8 6 8 9 9 7 6 6 5 5
3 4 4 3 3 3 3 4 3 3 3 3 3 3 3 3 3 2 2 1 1 2 3 2 4 7 8 8 9 11 11 11 9 10 7 7 8 7 6 8 9 6 7
Wind_Direction
39 68 69 70 124 138 149 144 144 135 144 163 160 143 158 163 169 179 176 169 185 173 228 183 188 154 168 165 139 121 124 125 148 99 88 78 90 139 140 135 132 142 207
48 58 58 58 64 72 77 100 142 156 166 163 161 159 158 168 169 184 174 167 179 172 183 196 193 167 166 159 166 168 163 160 128 147 132 138 151 138 167 159 192 189 196
47 58 59 53 60 60 57 57 86 136 146 142 155 170 173 169 170 182 181 176 186 188 183 183 201 178 172 169 167 172 152 136 117 126 140 128 121 149 134 129 167 221 226
49 54 53 44 47 49 44 48 48 78 137 143 163 156 174 180 167 172 168 179 189 191 180 187 173 191 189 173 171 175 156 153 134 115 127 135 146 139 117 155 209 194 197
47 47 44 35 42 45 43 40 33 50 62 82 99 114 138 181 167 169 175 178 182 179 184 180 188 197 177 178 164 167 161 165 155 153 133 137 157 159 190 165 139 121 215
48 49 43 41 44 39 37 35 36 36 34 50 68 129 132 143 166 183 178 170 184 179 187 183 171 175 181 176 181 176 178 172 182 168 149 177 175 160 144 156 128 119 228
47 44 40 42 44 37 36 35 33 27 31 40 34 45 64 113 166 168 169 159 168 172 166 161 154 179 166 174 190 183 188 190 184 185 182 181 163 170 139 130 135 135 154
45 42 35 40 43 34 38 36 28 23 28 31 29 41 49 8 163 175 165 160 162 163 181 162 167 171 173 165 176 185 185 198 187 172 168 150 139 149 149 142 133 106 85
34 37 30 38 45 41 39 29 24 17 25 26 26 28 35 25 34 178 139 122 148 164 174 148 165 169 174 169 165 176 181 170 152 142 138 138 141 142 135 120 141 140 155
18 21 24 32 40 39 32 27 18 8 21 22 31 19 21 16 6 348 149 133 132 117 133 152 167 171 178 179 180 178 185 180 148 144 148 148 144 157 164 168 155 159 123
350 15 30 30 40 32 26 28 18 31 33 24 25 17 14 7 348 316 256 159 155 162 168 164 172 187 186 192 188 185 187 154 161 152 148 140 142 147 150 135 149 144 131
7 23 22 18 25 25 36 26 23 33 42 26 21 15 3 357 358 291 239 189 173 154 159 160 178 200 200 201 195 185 169 160 159 159 153 152 154 152 144 134 129 111 87
15 21 21 12 11 5 24 26 28 24 42 28 26 13 352 348 357 13 55 104 133 114 140 180 193 207 210 209 198 177 165 166 164 162 162 155 153 132 123 103 105 110 97
13 9 7 20 7 15 18 19 25 27 18 30 17 9 343 344 355 359 10 30 83 96 155 177 190 197 195 157 160 162 153 159 162 159 148 128 122 128 131 118 126 138 112
8 16 17 14 6 358 357 329 349 302 353 3 339 349 344 345 311 342 336 347 86 168 133 152 149 136 132 138 124 125 125 129 132 125 134 133 130 134 124 127 125 120 103
25 13 5 1 357 2 360 345 357 14 6 11 18 360 290 289 333 333 317 314 212 156 60 136 125 148 147 144 135 133 131 130 133 131 134 138 140 138 133 122 124 121 126
22 355 352 356 353 360 358 13 357 336 351 11 3 357 351 333 338 313 306 284 282 140 105 125 134 127 125 126 140 140 135 137 129 130 135 137 135 133 135 133 127 114 92
330 318 339 341 338 334 336 326 326 8 334 320 336 338 350 342 337 313 296 248 317 87 104 135 134 129 125 128 129 131 127 131 129 132 131 133 135 137 137 133 130 120 110
321 324 329 304 295 289 300 311 302 321 301 285 322 342 348 339 357 4 353 128 134 135 128 121 128 126 123 125 129 131 136 134 132 128 126 128 131 133 121 119 115 119 117
303 285 306 306 322 333 343 343 329 312 308 313 313 286 319 2 8 344 353 30 85 113 103 126 128 127 125 127 125 125 121 125 124 121 120 119 115 120 126 129 131 133 114
279 296 297 324 310 291 290 299 301 304 285 289 267 272 301 140 300 325 344 21 61 91 122 125 120 119 118 120 124 127 126 120 116 115 113 109 114 109 104 107 112 106 118
251 286 321 283 301 304 269 267 273 270 274 284 294 308 342 35 357 316 334 1 348 67 139 122 115 113 128 130 128 123 121 119 116 116 115 117 112 111 107 110 106 109 114
227 259 275 274 248 289 302 274 260 258 269 267 286 302 329 318 311 305 313 330 343 357 48 97 110 100 94 103 111 123 129 136 136 131 127 122 118 119 124 125 126 113 102
216 224 233 254 270 253 253 266 260 253 250 259 268 275 273 286 290 283 293 318 346 359 356 83 106 119 107 95 97 101 109 115 120 124 125 126 123 124 118 119 122 115 114
219 228 221 236 237 249 260 258 255 240 235 250 254 244 268 277 285 289 297 335 10 33 46 49 91 118 120 116 109 102 110 110 110 118 114 119 127 126 121 116 121 112 107
217 225 237 235 248 242 239 249 249 248 241 233 239 226 221 238 252 265 278 303 121 99 65 56 88 99 104 105 109 112 111 112 110 112 116 123 126 121 122 123 129 126 126